Time,TemperatureF,DewpointF,PressureIn,WindDirection,WindDirectionDegrees,WindSpeedMPH,WindSpeedGustMPH,Humidity,HourlyPrecipIn,Conditions,Clouds,dailyrainin,SoftwareType,DateUTC
2013-04-16 00:05:00,51.9,46.0,30.32,SE,145,4.0,6.0,79,0.00,,,0.00,weatherlink.com 1.10,2013-04-16 04:05:00,
2013-04-16 00:18:00,51.7,46.0,30.32,ESE,119,2.0,7.0,80,0.00,,,0.00,weatherlink.com 1.10,2013-04-16 04:18:00,
2013-04-16 00:33:00,51.6,46.0,30.32,SE,144,8.0,9.0,80,0.00,,,0.00,weatherlink.com 1.10,2013-04-16 04:33:00,
2013-04-16 00:48:00,51.5,46.0,30.32,SE,145,1.0,6.0,80,0.00,,,0.00,weatherlink.com 1.10,2013-04-16 04:48:00,
2013-04-16 01:04:00,51.4,46.0,30.32,SE,125,5.0,5.0,81,0.00,,,0.00,weatherlink.com 1.10,2013-04-16 05:04:00,
2013-04-16 01:17:00,51.3,46.0,30.31,ESE,121,2.0,6.0,81,0.00,,,0.00,weatherlink.com 1.10,2013-04-16 05:17:00,
2013-04-16 01:32:00,51.2,46.0,30.31,SE,130,2.0,7.0,82,0.00,,,0.00,weatherlink.com 1.10,2013-04-16 05:32:00,
2013-04-16 01:47:00,51.0,46.0,30.30,ESE,107,5.0,8.0,82,0.00,,,0.00,weatherlink.com 1.10,2013-04-16 05:47:00,
2013-04-16 02:04:00,51.1,46.0,30.30,ESE,117,3.0,6.0,83,0.00,,,0.00,weatherlink.com 1.10,2013-04-16 06:04:00,
2013-04-16 02:17:00,51.0,46.0,30.30,SSE,150,2.0,6.0,83,0.00,,,0.00,weatherlink.com 1.10,2013-04-16 06:17:00,
2013-04-16 02:32:00,51.0,46.0,30.30,SE,137,2.0,6.0,83,0.00,,,0.00,weatherlink.com 1.10,2013-04-16 06:32:00,
2013-04-16 02:47:00,50.9,46.0,30.29,SE,132,1.0,6.0,84,0.00,,,0.00,weatherlink.com 1.10,2013-04-16 06:47:00,
2013-04-16 03:04:00,50.8,46.0,30.29,ESE,110,4.0,6.0,84,0.00,,,0.00,weatherlink.com 1.10,2013-04-16 07:04:00,
2013-04-16 03:17:00,50.4,46.0,30.28,ESE,112,3.0,7.0,84,0.00,,,0.00,weatherlink.com 1.10,2013-04-16 07:17:00,
2013-04-16 03:32:00,50.2,46.0,30.29,SE,137,2.0,5.0,84,0.00,,,0.00,weatherlink.com 1.10,2013-04-16 07:32:00,
2013-04-16 03:47:00,50.3,46.0,30.30,ESE,121,2.0,5.0,84,0.00,,,0.00,weatherlink.com 1.10,2013-04-16 07:47:00,
2013-04-16 04:04:00,50.2,46.0,30.30,ESE,105,3.0,5.0,84,0.00,,,0.00,weatherlink.com 1.10,2013-04-16 08:04:00,
2013-04-16 04:17:00,50.2,46.0,30.29,ESE,120,3.0,7.0,84,0.00,,,0.00,weatherlink.com 1.10,2013-04-16 08:17:00,
2013-04-16 04:32:00,50.1,46.0,30.29,ESE,119,3.0,8.0,84,0.00,,,0.00,weatherlink.com 1.10,2013-04-16 08:32:00,
2013-04-16 04:47:00,49.9,45.0,30.30,SE,143,4.0,7.0,84,0.00,,,0.00,weatherlink.com 1.10,2013-04-16 08:47:00,
2013-04-16 05:04:00,49.8,45.0,30.29,SE,125,2.0,7.0,84,0.00,,,0.00,weatherlink.com 1.10,2013-04-16 09:04:00,
2013-04-16 05:17:00,49.4,45.0,30.29,ESE,123,3.0,7.0,84,0.00,,,0.00,weatherlink.com 1.10,2013-04-16 09:17:00,
2013-04-16 05:32:00,49.4,45.0,30.29,ESE,107,3.0,6.0,85,0.00,,,0.00,weatherlink.com 1.10,2013-04-16 09:32:00,
2013-04-16 05:48:00,49.5,45.0,30.28,East,79,6.0,11.0,85,0.00,,,0.00,weatherlink.com 1.10,2013-04-16 09:48:00,
2013-04-16 06:05:00,49.4,45.0,30.29,ESE,119,4.0,9.0,85,0.00,,,0.00,weatherlink.com 1.10,2013-04-16 10:05:00,
2013-04-16 06:18:00,49.3,45.0,30.29,SE,146,5.0,9.0,85,0.00,,,0.00,weatherlink.com 1.10,2013-04-16 10:18:00,
2013-04-16 06:33:00,49.3,45.0,30.30,East,82,5.0,9.0,85,0.00,,,0.00,weatherlink.com 1.10,2013-04-16 10:33:00,
2013-04-16 06:48:00,49.3,45.0,30.30,ESE,118,1.0,7.0,85,0.00,,,0.00,weatherlink.com 1.10,2013-04-16 10:48:00,
2013-04-16 07:05:00,49.4,45.0,30.31,ESE,119,3.0,8.0,86,0.00,,,0.00,weatherlink.com 1.10,2013-04-16 11:05:00,
2013-04-16 07:18:00,49.8,46.0,30.30,SSE,167,2.0,8.0,85,0.00,,,0.00,weatherlink.com 1.10,2013-04-16 11:18:00,
2013-04-16 07:33:00,50.5,46.0,30.31,SE,134,3.0,10.0,85,0.00,,,0.00,weatherlink.com 1.10,2013-04-16 11:33:00,
2013-04-16 07:48:00,50.9,47.0,30.31,SSE,167,6.0,11.0,85,0.00,,,0.00,weatherlink.com 1.10,2013-04-16 11:48:00,
2013-04-16 08:05:00,51.6,47.0,30.31,SE,138,4.0,12.0,84,0.00,,,0.00,weatherlink.com 1.10,2013-04-16 12:05:00,
2013-04-16 08:18:00,52.5,48.0,30.32,SE,128,4.0,9.0,84,0.00,,,0.00,weatherlink.com 1.10,2013-04-16 12:18:00,
2013-04-16 08:33:00,53.0,48.0,30.32,SE,144,4.0,6.0,84,0.00,,,0.00,weatherlink.com 1.10,2013-04-16 12:33:00,
2013-04-16 08:48:00,53.5,49.0,30.32,South,173,6.0,10.0,83,0.00,,,0.00,weatherlink.com 1.10,2013-04-16 12:48:00,
2013-04-16 09:05:00,53.9,49.0,30.32,SE,144,6.0,9.0,83,0.00,,,0.00,weatherlink.com 1.10,2013-04-16 13:05:00,
2013-04-16 09:18:00,54.9,50.0,30.30,SE,142,5.0,9.0,82,0.00,,,0.00,weatherlink.com 1.10,2013-04-16 13:18:00,
2013-04-16 09:33:00,56.8,51.0,30.31,SE,126,3.0,11.0,81,0.00,,,0.00,weatherlink.com 1.10,2013-04-16 13:33:00,
2013-04-16 09:48:00,57.0,51.0,30.31,SSW,198,7.0,12.0,80,0.00,,,0.00,weatherlink.com 1.10,2013-04-16 13:48:00,
2013-04-16 10:05:00,57.2,51.0,30.30,SSE,165,8.0,13.0,81,0.00,,,0.00,weatherlink.com 1.10,2013-04-16 14:05:00,
2013-04-16 10:18:00,57.9,52.0,30.29,South,171,13.0,13.0,80,0.00,,,0.00,weatherlink.com 1.10,2013-04-16 14:18:00,
2013-04-16 10:33:00,58.6,52.0,30.30,South,170,10.0,15.0,80,0.00,,,0.00,weatherlink.com 1.10,2013-04-16 14:33:00,
2013-04-16 10:48:00,59.2,52.0,30.30,South,183,13.0,18.0,78,0.00,,,0.00,weatherlink.com 1.10,2013-04-16 14:48:00,
2013-04-16 11:05:00,59.5,53.0,30.30,SE,144,5.0,15.0,80,0.00,,,0.00,weatherlink.com 1.10,2013-04-16 15:05:00,
2013-04-16 11:18:00,60.5,54.0,30.29,SSE,153,4.0,18.0,78,0.00,,,0.00,weatherlink.com 1.10,2013-04-16 15:18:00,
2013-04-16 11:33:00,60.4,54.0,30.30,South,188,9.0,13.0,78,0.00,,,0.00,weatherlink.com 1.10,2013-04-16 15:33:00,
2013-04-16 11:48:00,60.5,54.0,30.29,South,184,10.0,19.0,78,0.00,,,0.00,weatherlink.com 1.10,2013-04-16 15:48:00,
2013-04-16 12:05:00,60.2,53.0,30.30,SSW,201,13.0,17.0,78,0.00,,,0.00,weatherlink.com 1.10,2013-04-16 16:05:00,
2013-04-16 12:18:00,61.2,54.0,30.29,SSE,163,11.0,17.0,77,0.00,,,0.00,weatherlink.com 1.10,2013-04-16 16:18:00,
2013-04-16 12:33:00,62.0,54.0,30.28,SSW,197,8.0,19.0,76,0.00,,,0.00,weatherlink.com 1.10,2013-04-16 16:33:00,
2013-04-16 12:48:00,63.5,55.0,30.27,SSE,152,12.0,18.0,75,0.00,,,0.00,weatherlink.com 1.10,2013-04-16 16:48:00,
2013-04-16 13:05:00,64.0,54.0,30.26,South,170,11.0,22.0,71,0.00,,,0.00,weatherlink.com 1.10,2013-04-16 17:05:00,
2013-04-16 13:18:00,64.2,55.0,30.25,SSW,195,10.0,22.0,72,0.00,,,0.00,weatherlink.com 1.10,2013-04-16 17:18:00,
2013-04-16 13:33:00,64.9,56.0,30.25,South,181,16.0,28.0,73,0.00,,,0.00,weatherlink.com 1.10,2013-04-16 17:33:00,
2013-04-16 13:48:00,64.9,55.0,30.23,South,188,18.0,21.0,70,0.00,,,0.00,weatherlink.com 1.10,2013-04-16 17:48:00,
2013-04-16 14:05:00,65.3,56.0,30.23,SSW,211,12.0,24.0,71,0.00,,,0.00,weatherlink.com 1.10,2013-04-16 18:05:00,
2013-04-16 14:18:00,65.9,55.0,30.23,SSW,192,15.0,28.0,69,0.00,,,0.00,weatherlink.com 1.10,2013-04-16 18:18:00,
2013-04-16 14:33:00,66.5,56.0,30.23,SSW,192,9.0,22.0,68,0.00,,,0.00,weatherlink.com 1.10,2013-04-16 18:33:00,
2013-04-16 14:49:00,66.9,56.0,30.22,South,169,13.0,22.0,67,0.00,,,0.00,weatherlink.com 1.10,2013-04-16 18:49:00,
2013-04-16 15:06:00,66.9,56.0,30.22,South,180,14.0,21.0,67,0.00,,,0.00,weatherlink.com 1.10,2013-04-16 19:06:00,
2013-04-16 15:19:00,67.0,56.0,30.21,SSW,201,14.0,20.0,67,0.00,,,0.00,weatherlink.com 1.10,2013-04-16 19:19:00,
2013-04-16 15:34:00,67.4,56.0,30.20,SSW,209,14.0,17.0,68,0.00,,,0.00,weatherlink.com 1.10,2013-04-16 19:34:00,
2013-04-16 15:49:00,67.5,57.0,30.19,SSW,192,11.0,18.0,69,0.00,,,0.00,weatherlink.com 1.10,2013-04-16 19:49:00,
2013-04-16 16:06:00,68.0,57.0,30.19,South,169,9.0,18.0,67,0.00,,,0.00,weatherlink.com 1.10,2013-04-16 20:06:00,
2013-04-16 16:19:00,68.7,58.0,30.18,SSW,199,7.0,17.0,68,0.00,,,0.00,weatherlink.com 1.10,2013-04-16 20:19:00,
2013-04-16 16:34:00,68.3,57.0,30.17,South,185,12.0,18.0,67,0.00,,,0.00,weatherlink.com 1.10,2013-04-16 20:34:00,
2013-04-16 16:49:00,68.6,57.0,30.16,SSW,196,17.0,24.0,67,0.00,,,0.00,weatherlink.com 1.10,2013-04-16 20:49:00,
2013-04-16 17:06:00,68.8,58.0,30.16,SSW,202,9.0,18.0,68,0.00,,,0.00,weatherlink.com 1.10,2013-04-16 21:06:00,
2013-04-16 17:19:00,68.8,57.0,30.15,South,184,11.0,22.0,67,0.00,,,0.00,weatherlink.com 1.10,2013-04-16 21:19:00,
2013-04-16 17:34:00,68.4,57.0,30.16,SW,221,10.0,21.0,68,0.00,,,0.00,weatherlink.com 1.10,2013-04-16 21:34:00,
2013-04-16 17:49:00,68.1,57.0,30.15,South,185,15.0,22.0,67,0.00,,,0.00,weatherlink.com 1.10,2013-04-16 21:49:00,
2013-04-16 18:06:00,68.0,57.0,30.14,South,185,15.0,20.0,68,0.00,,,0.00,weatherlink.com 1.10,2013-04-16 22:06:00,
2013-04-16 18:19:00,67.5,57.0,30.12,South,190,12.0,20.0,69,0.00,,,0.00,weatherlink.com 1.10,2013-04-16 22:19:00,
2013-04-16 18:34:00,67.2,57.0,30.13,SSW,195,8.0,13.0,70,0.00,,,0.00,weatherlink.com 1.10,2013-04-16 22:34:00,
2013-04-16 18:49:00,67.1,57.0,30.11,South,173,10.0,16.0,70,0.00,,,0.00,weatherlink.com 1.10,2013-04-16 22:49:00,
2013-04-16 19:19:00,66.3,57.0,30.12,SW,218,6.0,9.0,73,0.00,,,0.00,weatherlink.com 1.10,2013-04-16 23:19:00,
2013-04-16 19:39:00,66.1,57.0,30.13,SW,225,6.0,10.0,73,0.00,,,0.00,weatherlink.com 1.10,2013-04-16 23:39:00,
2013-04-16 19:49:00,65.3,57.0,30.13,South,189,4.0,7.0,74,0.00,,,0.00,weatherlink.com 1.10,2013-04-16 23:49:00,
2013-04-16 20:04:00,65.5,57.0,30.13,SSW,207,6.0,16.0,74,0.00,,,0.00,weatherlink.com 1.10,2013-04-17 00:04:00,
2013-04-16 20:19:00,65.1,57.0,30.14,SE,139,7.0,13.0,75,0.00,,,0.00,weatherlink.com 1.10,2013-04-17 00:19:00,
2013-04-16 20:34:00,65.0,57.0,30.14,South,178,12.0,15.0,75,0.00,,,0.00,weatherlink.com 1.10,2013-04-17 00:34:00,
2013-04-16 20:49:00,64.5,57.0,30.14,SSW,197,7.0,13.0,76,0.00,,,0.00,weatherlink.com 1.10,2013-04-17 00:49:00,
2013-04-16 21:04:00,64.1,57.0,30.14,SSW,210,5.0,12.0,78,0.00,,,0.00,weatherlink.com 1.10,2013-04-17 01:04:00,
2013-04-16 21:19:00,63.5,57.0,30.15,South,188,8.0,12.0,79,0.00,,,0.00,weatherlink.com 1.10,2013-04-17 01:19:00,
2013-04-16 21:34:00,63.4,57.0,30.16,SSW,209,5.0,17.0,79,0.00,,,0.00,weatherlink.com 1.10,2013-04-17 01:34:00,
2013-04-16 21:50:00,63.0,57.0,30.14,South,178,6.0,11.0,80,0.00,,,0.00,weatherlink.com 1.10,2013-04-17 01:50:00,
2013-04-16 22:05:00,62.7,56.0,30.15,South,189,16.0,17.0,80,0.00,,,0.00,weatherlink.com 1.10,2013-04-17 02:05:00,
2013-04-16 22:20:00,62.2,56.0,30.16,South,184,12.0,16.0,81,0.00,,,0.00,weatherlink.com 1.10,2013-04-17 02:20:00,
2013-04-16 22:40:00,61.8,56.0,30.16,SW,221,9.0,12.0,81,0.00,,,0.00,weatherlink.com 1.10,2013-04-17 02:40:00,
2013-04-16 22:50:00,61.4,56.0,30.15,SSW,210,7.0,13.0,82,0.00,,,0.00,weatherlink.com 1.10,2013-04-17 02:50:00,
2013-04-16 23:04:00,61.3,56.0,30.15,SSW,202,12.0,14.0,83,0.00,,,0.00,weatherlink.com 1.10,2013-04-17 03:04:00,
2013-04-16 23:20:00,60.9,56.0,30.14,South,182,2.0,10.0,83,0.00,,,0.00,weatherlink.com 1.10,2013-04-17 03:20:00,
2013-04-16 23:40:00,60.7,56.0,30.16,SSW,198,4.0,7.0,84,0.00,,,0.00,weatherlink.com 1.10,2013-04-17 03:40:00,
2013-04-16 23:50:00,60.5,56.0,30.15,SSW,201,5.0,7.0,84,0.00,,,0.00,weatherlink.com 1.10,2013-04-17 03:50:00,